Regional Weather Roundup
Issued by NWS Green Bay, WI

Home | Current Version | Previous Version | Text Only | Print | Product List | Glossary On
Versions: 1 2 3 4 5 6 7 8 9 10 11 12 13 14 15 16 17 18 19 20 21 22 23 24 25 26 27 28 29 30 31 32 33 34 35 36 37 38 39 40 41 42 43 44 45 46 47 48 49 50
000
ASUS43 KGRB 032311
RWRGRB

NORTH-CENTRAL AND NORTHEAST WISCONSIN REGIONAL WEATHER ROUNDUP
NATIONAL WEATHER SERVICE GREEN BAY WI
600 PM CDT MON AUG 03 2015

WIZ005-009-010>012-018-019-040000-
NORTH CENTRAL WISCONSIN

CITY           SKY/WX    TMP DP  RH WIND       PRES   REMARKS
IRONWOOD       PTSUNNY   66  54  63 W14       29.82R
MANITOWISH WTR CLOUDY    67  53  59 NW10      29.85S
ARBOR VITAE    MOSUNNY   67  55  65 W12       29.85S
EAGLE RIVER    PTSUNNY   67  50  54 NW9       29.84S
LAND O LAKES   MOSUNNY   67  51  58 W7        29.85S
RHINELANDER    PTSUNNY   66  53  63 W10       29.87R
PHILLIPS       CLOUDY    67  54  63 W9        29.87S
ANTIGO         CLOUDY    69  53  57 NW10G17   29.86R
TOMAHAWK       CLOUDY    67  53  61 W9G17     29.87R
MERRILL        NOT AVBL
$$

WIZ013-073-040000-
NORTHEAST WISCONSIN

CITY           SKY/WX    TMP DP  RH WIND       PRES   REMARKS
IRON MOUNTAIN  MOSUNNY   70  50  49 NW14      29.80R
MARINETTE      SUNNY     73  52  46 N14       29.78S
OCONTO         MOSUNNY   74  53  47 NW8       29.79S
$$

WIZ017-030-035>037-045-040000-
CENTRAL WISCONSIN

CITY           SKY/WX    TMP DP  RH WIND       PRES   REMARKS
MEDFORD        CLOUDY    67  54  62 NW10      29.88S
WAUSAU         PTSUNNY   71  52  50 NW16      29.84R
MOSINEE        NOT AVBL
MARSHFIELD     MOSUNNY   73  51  46 NW16G22   29.87R
WISC RAPIDS    MOSUNNY   77  48  35 NW14G23   29.86S
STEVENS POINT  PTSUNNY   72  52  50 NW8       29.86R
WAUPACA        MOSUNNY   78  51  39 W10G18    29.83S
SHAWANO        CLOUDY    72  55  55 W9        29.83R
CLINTONVILLE   CLOUDY    73  50  43 N7        29.82S
$$

WIZ038-039-048-051-040000-
FOX VALLEY

CITY           SKY/WX    TMP DP  RH WIND       PRES   REMARKS
NWS GREEN BAY  CLOUDY    73  56  54 NW9       29.81R
APPLETON       PTSUNNY   73  48  40 W17       29.84R
OSHKOSH        MOSUNNY   76  52  43 NW13G22   29.82S
FOND DU LAC    PTSUNNY   77  52  41 NW10      29.83R
$$

WIZ022-050-052-040000-
EAST CENTRAL WISCONSIN

CITY           SKY/WX    TMP DP  RH WIND       PRES   REMARKS
STURGEON BAY   MOSUNNY   72  54  53 NW12      29.82S
MANITOWOC      CLOUDY    76  51  41 MISG      29.81R
SHEBOYGAN      CLOUDY    76  53  44 NW13      29.82R
$$

LMZ563-521-522-541>543-040000-
LAKESHORE

STATION/POSITION TIME  TEMP    WIND        PRES    VSBY  WAVE
                       AIR SEA DIR/SP/G                  HT/PER
                 (UTC) (F)     (DEG/KT/KT) (MB)    (MI)  (FT/S)
SHEBOYGAN LKSHOR 2300   76     280/ 12/ 15 1009.7R
KEWAUNEE LKSHORE 2200   74     310/  5/  9 1008.4R
ALGOMA MARINA    2242          330/ 15/ 18   N/A
NORTHPORT PIER   2200   68      10/  3/  5 1008.5R
N MID LAKE BUOY  2250   66 68  330/  6/  6 1008.3R         2/ 3
S GREEN BAY BUOY 2300   71 70  320/  8/ 12 1010.4R
SISTER BAY LKSHO 2218   69     360/  9/ 10   N/A
CHAMBERS ISLAND  2200   74     290/  6/ 11 1008.5R
MENOMINEE LKSHOR 2200   73     290/  8/ 17 1009.3R
$$


USA.gov is the U.S. government's official web portal to all federal, state and local government web resources and services.